Flag for Germany Weather past 2 weeks in Rastatt, Baden-Württemberg, Germany

Now
46 °F

Clear.


Feels Like: 44 °F
Forecast: 36 / 54 °F
Wind: 5 mph from Southwest

Location: Karlsruhe - Baden Wurttemberg

Current Time: Oct 23, 2014 at 7:55:35 AM

Latest Report: Oct 23, 2014 at 7:20 AM


Visibility: 10 mi

Pressure: 30.24 "Hg

Humidity: 82%

Dew point: 41 °F

Location of RastattLocation

Historic Weather in Rastatt — Graph

°F

Rastatt temperature yesterday

Maximum temperature yesterday: 50 °F (at 3:50 PM)
Minimum temperature yesterday: 45 °F (at 5:50 AM)
Average temperature yesterday: 48 °F

Past Weeks' High & Low Weather Summary

 TemperatureHumidityPressure
High75 °F (Oct 19, 2:50 PM)100% (Oct 12, 5:50 AM)30.24 "Hg (Oct 12, 5:50 AM)
Low45 °F (Oct 18, 6:50 AM)50% (Oct 19, 3:50 PM)29.65 "Hg (Oct 21, 5:20 PM)
Average59 °F82%29.93 "Hg
* Reported Oct 8 6:20 AM — Oct 23 6:50 AM, Rastatt, Weather by CustomWeather, © 2014

Note: Actual official high and low records may vary slightly from our data, if they occured in-between our weather recording intervals... More about our weather records

Advertising

Rastatt weather history for previous 24 hours

 ConditionsComfort  
Time TempWeatherWind HumidityBarometerVisibility
6:50 AM
Oct 23
46 °FClear.2 mph82%30.24 "Hg10 mi
6:20 AM48 °FPassing clouds.6 mph76%30.24 "HgN/A
5:50 AM48 °FPassing clouds.8 mph76%30.24 "HgN/A
5:20 AM48 °FPassing clouds.7 mph76%30.24 "HgN/A
4:50 AM48 °FPassing clouds.8 mph76%30.24 "HgN/A
10:20 PM
Oct 22
48 °FSprinkles. Partly cloudy.5 mph76%30.21 "Hg6 mi
9:50 PM48 °FPartly cloudy.7 mph76%30.21 "HgN/A
9:20 PM50 °FPartly cloudy.8 mph71%30.18 "HgN/A
8:50 PM50 °FPartly cloudy.10 mph67%30.18 "HgN/A
8:20 PM50 °FPassing clouds.9 mph67%30.15 "HgN/A
7:50 PM50 °FPassing clouds.9 mph67%30.15 "HgN/A
7:20 PM50 °FSunny.7 mph67%30.15 "Hg10 mi
6:50 PM50 °FSunny.9 mph67%30.15 "Hg10 mi
6:20 PM50 °FPassing clouds.12 mph67%30.12 "HgN/A
5:50 PM50 °FScattered showers. Broken clouds.10 mph67%30.12 "HgN/A
5:20 PM50 °FScattered showers. Partly sunny.12 mph62%30.12 "HgN/A
4:50 PM50 °FBroken clouds.12 mph62%30.12 "HgN/A
4:20 PM50 °FPartly sunny.10 mph62%30.12 "HgN/A
3:50 PM50 °FPartly sunny.12 mph62%30.12 "HgN/A
3:20 PM48 °FPartly sunny.9 mph66%30.15 "HgN/A
2:50 PM48 °FLight rain. Partly sunny.12 mph66%30.15 "HgN/A
2:20 PM48 °FBroken clouds.9 mph66%30.15 "HgN/A
1:50 PM48 °FScattered clouds.9 mph66%30.15 "HgN/A
1:20 PM46 °FPartly sunny.10 mph71%30.15 "HgN/A
12:50 PM46 °FPartly sunny.10 mph71%30.15 "HgN/A
12:20 PM46 °FPartly sunny.9 mph66%30.15 "HgN/A
11:50 AM46 °FPartly sunny.13 mph66%30.15 "HgN/A
11:20 AM46 °FPartly sunny.14 mph66%30.12 "HgN/A
10:50 AM46 °FPartly sunny.15 mph66%30.12 "HgN/A
10:20 AM46 °FBroken clouds.10 mph66%30.12 "HgN/A
9:50 AM46 °FScattered showers. Partly sunny.12 mph66%30.12 "HgN/A
9:20 AM46 °FScattered showers. Partly sunny.12 mph66%30.12 "HgN/A
8:50 AM46 °FScattered showers. Passing clouds.10 mph66%30.09 "HgN/A
8:20 AM46 °FPassing clouds.12 mph66%30.09 "HgN/A
7:50 AM46 °FPartly cloudy.12 mph71%30.07 "HgN/A
7:20 AM45 °FPartly cloudy.9 mph76%30.07 "HgN/A
Weather by CustomWeather, © 2014

See weather overviewHow to use our weather pages